Location: Veytaux
(46.4185°N, 6.9320°E)
Time: 07:53:31
(UTC+00:00)

IRS-1D - Pass Details

Date: 27 May 2022
Orbit: 740 x 816 km, 98.7° (Epoch: 01 July)

Event Time Altitude Azimuth Distance (km) Brightness Sun altitude
Rises 03:01:36 0° 8° (N) 3,354 7.7 -7.1°
Reaches altitude 10° 03:04:03 10° 2° (N) 2,415 6.8 -6.8°
Maximum altitude 03:09:04 43° 293° (WNW) 1,124 4.2 -6.1°
Drops below altitude 10° 03:14:01 10° 223° (SW) 2,372 5.4 -5.4°
Enters shadow 03:14:59 - 220° (SW) 2,740 5.7 -5.3°
